| time (UTC) | temp C | wind direction | speed KPH | gust KPH | rain 1hr cm | rain 24hr cm | rain mn cm | humidity % | barometer mb |
| 20260906150106 | 23 | 10 | 8.0 | 19.3 | 0.00 | 0.03 | 0.00 | 83 | 1018.4 |
| 20260906145540 | 23 | 31 | 11.3 | 19.3 | 0.00 | 0.03 | 0.00 | 82 | 1018.3 |
| 20260906145040 | 23 | 61 | 4.8 | 16.1 | 0.00 | 0.03 | 0.00 | 83 | 1018.1 |
| 20260906144557 | 23 | 51 | 6.4 | 20.9 | 0.00 | 0.03 | 0.00 | 84 | 1018.2 |
| 20260906144039 | 23 | 26 | 8.0 | 20.9 | 0.00 | 0.03 | 0.00 | 84 | 1018.1 |
| 20260906143540 | 23 | 28 | 12.9 | 20.9 | 0.00 | 0.03 | 0.00 | 85 | 1018.0 |
| 20260906143135 | 23 | 9 | 11.3 | 20.9 | 0.00 | 0.03 | 0.00 | 86 | 1018.0 |
| 20260906142540 | 23 | 35 | 14.5 | 20.9 | 0.00 | 0.03 | 0.00 | 86 | 1017.9 |
| 20260906142040 | 23 | 19 | 12.9 | 20.9 | 0.00 | 0.03 | 0.00 | 87 | 1017.8 |
| 20260906141558 | 22 | 39 | 11.3 | 17.7 | 0.00 | 0.03 | 0.00 | 87 | 1017.8 |
| 20260906141040 | 22 | 13 | 11.3 | 19.3 | 0.00 | 0.03 | 0.00 | 88 | 1017.7 |
| 20260906140541 | 22 | 22 | 11.3 | 19.3 | 0.00 | 0.03 | 0.00 | 88 | 1017.8 |
| 20260906140105 | 22 | 5 | 9.7 | 17.7 | 0.00 | 0.03 | 0.00 | 88 | 1017.8 |
| 20260906135540 | 22 | 5 | 8.0 | 17.7 | 0.00 | 0.03 | 0.00 | 89 | 1017.8 |
| 20260906135042 | 22 | 355 | 8.0 | 16.1 | 0.00 | 0.03 | 0.00 | 90 | 1017.7 |
| 20260906134611 | 22 | 349 | 6.4 | 16.1 | 0.00 | 0.03 | 0.00 | 90 | 1017.6 |
| 20260906134040 | 21 | 24 | 8.0 | 16.1 | 0.00 | 0.03 | 0.00 | 90 | 1017.7 |
| 20260906133543 | 21 | 16 | 9.7 | 16.1 | 0.00 | 0.03 | 0.00 | 90 | 1017.7 |
| 20260906133103 | 21 | 35 | 9.7 | 17.7 | 0.00 | 0.03 | 0.00 | 90 | 1017.7 |
| 20260906132543 | 21 | 13 | 11.3 | 17.7 | 0.00 | 0.03 | 0.00 | 90 | 1017.6 |
| 20260906132041 | 21 | 352 | 9.7 | 14.5 | 0.00 | 0.03 | 0.00 | 90 | 1017.8 |
| 20260906131601 | 21 | 40 | 6.4 | 19.3 | 0.00 | 0.03 | 0.00 | 90 | 1017.8 |
| 20260906131039 | 21 | 48 | 9.7 | 19.3 | 0.00 | 0.03 | 0.00 | 91 | 1017.8 |
| 20260906130540 | 21 | 25 | 9.7 | 17.7 | 0.00 | 0.03 | 0.00 | 91 | 1017.6 |
| 20260906130056 | 21 | 37 | 9.7 | 17.7 | 0.00 | 0.03 | 0.00 | 91 | 1017.6 |
| 20260906125540 | 21 | 351 | 9.7 | 16.1 | 0.00 | 0.03 | 0.00 | 91 | 1017.6 |
| 20260906125040 | 21 | 47 | 9.7 | 16.1 | 0.00 | 0.03 | 0.00 | 91 | 1017.7 |
| 20260906124559 | 21 | 360 | 8.0 | 16.1 | 0.00 | 0.03 | 0.00 | 92 | 1017.6 |
| 20260906124040 | 21 | 5 | 6.4 | 16.1 | 0.00 | 0.03 | 0.00 | 92 | 1017.6 |
| 20260906123539 | 21 | 27 | 8.0 | 16.1 | 0.00 | 0.03 | 0.00 | 92 | 1017.6 |
| 20260906123135 | 21 | 344 | 6.4 | 12.9 | 0.00 | 0.03 | 0.00 | 92 | 1017.5 |
| 20260906122540 | 21 | 355 | 3.2 | 12.9 | 0.00 | 0.03 | 0.00 | 92 | 1017.4 |
| 20260906122039 | 21 | 36 | 6.4 | 12.9 | 0.00 | 0.03 | 0.00 | 92 | 1017.3 |
| 20260906121559 | 21 | 26 | 6.4 | 12.9 | 0.00 | 0.03 | 0.00 | 92 | 1017.2 |
| 20260906121039 | 21 | 15 | 6.4 | 12.9 | 0.00 | 0.03 | 0.00 | 92 | 1017.1 |
| 20260906120541 | 21 | 36 | 6.4 | 11.3 | 0.00 | 0.03 | 0.00 | 92 | 1016.8 |
| 20260906120059 | 21 | 35 | 6.4 | 11.3 | 0.00 | 0.03 | 0.00 | 92 | 1016.8 |
| 20260906115540 | 21 | 11 | 4.8 | 11.3 | 0.00 | 0.03 | 0.00 | 91 | 1016.9 |
| 20260906115040 | 21 | 9 | 6.4 | 11.3 | 0.00 | 0.03 | 0.00 | 91 | 1016.9 |
| 20260906114604 | 21 | 17 | 0.0 | 6.4 | 0.00 | 0.03 | 0.00 | 91 | 1016.8 |
| 20260906114038 | 21 | 0 | 0.0 | 8.0 | 0.00 | 0.03 | 0.00 | 91 | 1016.8 |
| 20260906113538 | 21 | 53 | 3.2 | 9.7 | 0.00 | 0.03 | 0.00 | 91 | 1016.7 |
| 20260906113057 | 21 | 42 | 4.8 | 11.3 | 0.00 | 0.03 | 0.00 | 91 | 1016.7 |
| 20260906112546 | 21 | 33 | 4.8 | 11.3 | 0.00 | 0.03 | 0.00 | 91 | 1016.7 |
| 20260906112039 | 21 | 19 | 6.4 | 9.7 | 0.00 | 0.03 | 0.00 | 91 | 1016.6 |
| 20260906111556 | 21 | 16 | 4.8 | 8.0 | 0.00 | 0.03 | 0.00 | 91 | 1016.7 |
| 20260906111038 | 21 | 29 | 3.2 | 8.0 | 0.00 | 0.03 | 0.00 | 91 | 1016.6 |
| 20260906110540 | 22 | 19 | 3.2 | 8.0 | 0.00 | 0.03 | 0.00 | 91 | 1016.7 |
| 20260906110105 | 22 | 34 | 3.2 | 6.4 | 0.00 | 0.03 | 0.00 | 91 | 1016.7 |
| 20260906105540 | 22 | 34 | 3.2 | 8.0 | 0.00 | 0.03 | 0.00 | 91 | 1016.8 |
| 20260906105040 | 22 | 22 | 3.2 | 8.0 | 0.00 | 0.03 | 0.00 | 91 | 1016.7 |
| 20260906104600 | 22 | 49 | 3.2 | 6.4 | 0.00 | 0.03 | 0.00 | 91 | 1016.7 |
| 20260906104040 | 22 | 36 | 3.2 | 6.4 | 0.00 | 0.03 | 0.00 | 91 | 1016.5 |
| 20260906103538 | 22 | 36 | 3.2 | 6.4 | 0.00 | 0.03 | 0.00 | 91 | 1016.5 |
| 20260906103057 | 22 | 17 | 3.2 | 8.0 | 0.00 | 0.03 | 0.00 | 91 | 1016.5 |
| 20260906102539 | 22 | 24 | 3.2 | 8.0 | 0.00 | 0.03 | 0.00 | 90 | 1016.5 |
| 20260906102040 | 22 | 27 | 3.2 | 8.0 | 0.00 | 0.03 | 0.00 | 90 | 1016.5 |
| 20260906101604 | 22 | 36 | 3.2 | 6.4 | 0.00 | 0.03 | 0.00 | 90 | 1016.5 |
| 20260906101039 | 22 | 28 | 3.2 | 6.4 | 0.00 | 0.03 | 0.00 | 90 | 1016.5 |
| 20260906100541 | 22 | 40 | 1.6 | 4.8 | 0.00 | 0.03 | 0.00 | 90 | 1016.4 |
| 20260906100101 | 22 | 40 | 1.6 | 4.8 | 0.00 | 0.03 | 0.00 | 89 | 1016.3 |
| 20260906095539 | 22 | 40 | 1.6 | 6.4 | 0.00 | 0.03 | 0.00 | 89 | 1016.3 |
| 20260906095040 | 22 | 40 | 1.6 | 6.4 | 0.00 | 0.03 | 0.00 | 89 | 1016.3 |
| 20260906094607 | 22 | 47 | 3.2 | 8.0 | 0.00 | 0.03 | 0.00 | 89 | 1016.2 |
| 20260906094039 | 23 | 50 | 4.8 | 8.0 | 0.00 | 0.03 | 0.00 | 88 | 1016.2 |
| 20260906093541 | 23 | 38 | 1.6 | 6.4 | 0.00 | 0.03 | 0.00 | 88 | 1016.2 |
| 20260906093058 | 23 | 0 | 0.0 | 0.0 | 0.00 | 0.03 | 0.00 | 87 | 1016.2 |
| 20260906092540 | 23 | 0 | 0.0 | 0.0 | 0.00 | 0.03 | 0.00 | 87 | 1016.0 |
| 20260906092040 | 23 | 0 | 0.0 | 3.2 | 0.00 | 0.03 | 0.00 | 86 | 1015.9 |
| 20260906091608 | 23 | 0 | 0.0 | 8.0 | 0.00 | 0.03 | 0.00 | 86 | 1015.8 |
| 20260906091042 | 23 | 82 | 1.6 | 9.7 | 0.00 | 0.03 | 0.00 | 86 | 1015.8 |
| 20260906090540 | 23 | 55 | 4.8 | 11.3 | 0.00 | 0.03 | 0.00 | 86 | 1015.8 |
| 20260906090106 | 23 | 45 | 4.8 | 11.3 | 0.00 | 0.03 | 0.00 | 85 | 1015.9 |
| 20260906085544 | 23 | 23 | 4.8 | 16.1 | 0.00 | 0.03 | 0.00 | 84 | 1015.8 |
| 20260906085043 | 23 | 44 | 8.0 | 16.1 | 0.00 | 0.03 | 0.00 | 84 | 1015.8 |
| 20260906084604 | 23 | 20 | 4.8 | 14.5 | 0.00 | 0.03 | 0.00 | 83 | 1015.9 |
| 20260906084041 | 23 | 46 | 4.8 | 19.3 | 0.00 | 0.03 | 0.00 | 83 | 1015.8 |
| 20260906083540 | 23 | 51 | 6.4 | 19.3 | 0.00 | 0.03 | 0.00 | 83 | 1015.8 |
| 20260906083057 | 23 | 42 | 9.7 | 22.5 | 0.00 | 0.03 | 0.00 | 83 | 1015.8 |
| 20260906082540 | 23 | 57 | 11.3 | 22.5 | 0.00 | 0.03 | 0.00 | 85 | 1015.8 |
| 20260906082043 | 23 | 24 | 9.7 | 19.3 | 0.00 | 0.03 | 0.00 | 86 | 1015.8 |
| 20260906081558 | 23 | 41 | 6.4 | 16.1 | 0.00 | 0.03 | 0.00 | 87 | 1015.8 |
| 20260906081039 | 23 | 44 | 8.0 | 16.1 | 0.00 | 0.03 | 0.00 | 87 | 1015.8 |
| 20260906080540 | 24 | 30 | 6.4 | 12.9 | 0.00 | 0.03 | 0.00 | 88 | 1015.7 |
| 20260906075539 | 24 | 36 | 6.4 | 11.3 | 0.00 | 0.03 | 0.00 | 88 | 1015.6 |
| 20260906075040 | 24 | 34 | 4.8 | 11.3 | 0.00 | 0.03 | 0.00 | 88 | 1015.6 |
| 20260906074554 | 24 | 42 | 4.8 | 8.0 | 0.00 | 0.03 | 0.00 | 88 | 1015.7 |
| 20260906074039 | 25 | 38 | 4.8 | 8.0 | 0.00 | 0.03 | 0.00 | 88 | 1015.6 |
| 20260906073539 | 25 | 41 | 3.2 | 8.0 | 0.00 | 0.03 | 0.00 | 88 | 1015.6 |
| 20260906073058 | 25 | 41 | 3.2 | 8.0 | 0.00 | 0.03 | 0.00 | 87 | 1015.7 |
| 20260906072540 | 25 | 41 | 4.8 | 12.9 | 0.00 | 0.03 | 0.00 | 87 | 1015.7 |
| 20260906072039 | 25 | 34 | 4.8 | 12.9 | 0.00 | 0.03 | 0.00 | 87 | 1015.7 |
| 20260906071557 | 25 | 58 | 6.4 | 16.1 | 0.00 | 0.03 | 0.00 | 87 | 1015.7 |
| 20260906071041 | 25 | 24 | 8.0 | 16.1 | 0.00 | 0.03 | 0.00 | 87 | 1015.7 |
| 20260906070540 | 25 | 34 | 4.8 | 12.9 | 0.00 | 0.03 | 0.00 | 87 | 1015.7 |
| 20260906065539 | 25 | 40 | 6.4 | 9.7 | 0.00 | 0.03 | 0.00 | 87 | 1015.8 |
| 20260906065040 | 25 | 43 | 4.8 | 12.9 | 0.00 | 0.03 | 0.00 | 86 | 1015.8 |
| 20260906064553 | 25 | 44 | 4.8 | 12.9 | 0.00 | 0.03 | 0.00 | 86 | 1015.8 |
| 20260906064039 | 25 | 33 | 4.8 | 12.9 | 0.00 | 0.03 | 0.00 | 86 | 1015.8 |
| 20260906063538 | 26 | 36 | 6.4 | 16.1 | 0.00 | 0.03 | 0.00 | 86 | 1015.8 |
| 20260906063101 | 26 | 46 | 4.8 | 16.1 | 0.00 | 0.03 | 0.00 | 86 | 1015.7 |
| 20260906062539 | 26 | 38 | 4.8 | 9.7 | 0.00 | 0.03 | 0.00 | 85 | 1015.7 |
| 20260906062040 | 26 | 44 | 6.4 | 9.7 | 0.00 | 0.03 | 0.00 | 85 | 1015.7 |
| 20260906061600 | 26 | 41 | 4.8 | 9.7 | 0.00 | 0.03 | 0.00 | 84 | 1015.6 |
| 20260906061039 | 26 | 27 | 6.4 | 17.7 | 0.00 | 0.03 | 0.00 | 84 | 1015.7 |
| 20260906060540 | 26 | 9 | 9.7 | 17.7 | 0.00 | 0.03 | 0.00 | 84 | 1015.6 |
| 20260906060059 | 26 | 41 | 8.0 | 14.5 | 0.00 | 0.03 | 0.00 | 84 | 1015.7 |
| 20260906055539 | 26 | 33 | 4.8 | 12.9 | 0.00 | 0.03 | 0.00 | 84 | 1015.6 |
| 20260906055039 | 26 | 51 | 6.4 | 9.7 | 0.00 | 0.03 | 0.00 | 84 | 1015.6 |
| 20260906054556 | 26 | 45 | 4.8 | 11.3 | 0.00 | 0.03 | 0.00 | 84 | 1015.5 |
| 20260906054039 | 26 | 34 | 4.8 | 11.3 | 0.00 | 0.03 | 0.00 | 84 | 1015.6 |
| 20260906053539 | 26 | 14 | 3.2 | 6.4 | 0.00 | 0.03 | 0.00 | 84 | 1015.6 |
| 20260906053107 | 26 | 14 | 1.6 | 4.8 | 0.00 | 0.03 | 0.00 | 84 | 1015.5 |
| 20260906052544 | 26 | 14 | 1.6 | 4.8 | 0.00 | 0.03 | 0.00 | 84 | 1015.6 |
| 20260906052040 | 26 | 14 | 3.2 | 4.8 | 0.00 | 0.03 | 0.00 | 84 | 1015.6 |
| 20260906051559 | 26 | 14 | 3.2 | 6.4 | 0.00 | 0.03 | 0.00 | 83 | 1015.6 |
| 20260906051040 | 26 | 14 | 3.2 | 6.4 | 0.00 | 0.03 | 0.00 | 83 | 1015.6 |
| 20260906050542 | 26 | 14 | 0.0 | 4.8 | 0.00 | 0.03 | 0.00 | 83 | 1015.5 |
| 20260906050056 | 26 | 0 | 0.0 | 0.0 | 0.00 | 0.03 | 0.00 | 82 | 1015.5 |
| 20260906045539 | 26 | 0 | 0.0 | 0.0 | 0.00 | 0.03 | 0.03 | 82 | 1015.4 |
| 20260906045039 | 26 | 0 | 0.0 | 0.0 | 0.00 | 0.03 | 0.03 | 81 | 1015.4 |
| 20260906044553 | 26 | 0 | 0.0 | 0.0 | 0.00 | 0.03 | 0.03 | 81 | 1015.4 |
| 20260906044039 | 26 | 0 | 0.0 | 0.0 | 0.00 | 0.03 | 0.03 | 81 | 1015.4 |
| 20260906043539 | 27 | 0 | 0.0 | 0.0 | 0.00 | 0.03 | 0.03 | 81 | 1015.4 |
| 20260906043102 | 27 | 0 | 0.0 | 0.0 | 0.00 | 0.03 | 0.03 | 80 | 1015.3 |
| 20260906042539 | 27 | 0 | 0.0 | 0.0 | 0.00 | 0.03 | 0.03 | 80 | 1015.2 |
| 20260906042039 | 27 | 0 | 0.0 | 0.0 | 0.00 | 0.03 | 0.03 | 79 | 1015.2 |
| 20260906041600 | 27 | 0 | 0.0 | 0.0 | 0.00 | 0.03 | 0.03 | 79 | 1015.1 |
| 20260906041038 | 27 | 0 | 0.0 | 3.2 | 0.00 | 0.03 | 0.03 | 79 | 1015.0 |
| 20260906040543 | 27 | 0 | 0.0 | 3.2 | 0.00 | 0.03 | 0.03 | 77 | 1015.0 |
| 20260906040059 | 27 | 14 | 0.0 | 3.2 | 0.00 | 0.03 | 0.03 | 77 | 1015.0 |
| 20260906035541 | 27 | 0 | 0.0 | 3.2 | 0.00 | 0.03 | 0.03 | 77 | 1014.9 |
| 20260906035039 | 27 | 14 | 0.0 | 4.8 | 0.00 | 0.03 | 0.03 | 77 | 1014.8 |
| 20260906034554 | 27 | 0 | 0.0 | 6.4 | 0.00 | 0.03 | 0.03 | 77 | 1014.9 |
| 20260906034039 | 27 | 14 | 1.6 | 6.4 | 0.00 | 0.03 | 0.03 | 77 | 1015.0 |
| 20260906033541 | 27 | 0 | 0.0 | 6.4 | 0.00 | 0.03 | 0.03 | 77 | 1014.8 |
| 20260906033111 | 27 | 0 | 1.6 | 6.4 | 0.00 | 0.03 | 0.03 | 77 | 1014.8 |
| 20260906032539 | 28 | 14 | 3.2 | 6.4 | 0.00 | 0.03 | 0.03 | 76 | 1014.7 |
| 20260906032040 | 28 | 14 | 3.2 | 6.4 | 0.00 | 0.03 | 0.03 | 76 | 1014.6 |
| 20260906031557 | 28 | 14 | 3.2 | 6.4 | 0.00 | 0.03 | 0.03 | 75 | 1014.7 |
| 20260906031039 | 28 | 14 | 3.2 | 6.4 | 0.00 | 0.03 | 0.03 | 75 | 1014.7 |
| 20260906030540 | 28 | 14 | 3.2 | 6.4 | 0.00 | 0.03 | 0.03 | 74 | 1014.5 |
| 20260906030057 | 28 | 14 | 3.2 | 8.0 | 0.00 | 0.03 | 0.03 | 74 | 1014.5 |
| 20260906025540 | 28 | 14 | 3.2 | 8.0 | 0.00 | 0.03 | 0.03 | 73 | 1014.4 |
| 20260906025041 | 28 | 14 | 4.8 | 9.7 | 0.00 | 0.03 | 0.03 | 73 | 1014.5 |
| 20260906024558 | 28 | 5 | 4.8 | 12.9 | 0.00 | 0.03 | 0.03 | 73 | 1014.5 |
| 20260906024039 | 28 | 355 | 4.8 | 14.5 | 0.00 | 0.03 | 0.03 | 72 | 1014.5 |
| 20260906023544 | 28 | 355 | 8.0 | 14.5 | 0.00 | 0.03 | 0.03 | 72 | 1014.3 |
| 20260906023100 | 28 | 5 | 6.4 | 12.9 | 0.00 | 0.03 | 0.03 | 72 | 1014.3 |
| 20260906022539 | 29 | 9 | 6.4 | 12.9 | 0.00 | 0.03 | 0.03 | 71 | 1014.3 |
| 20260906022043 | 29 | 5 | 6.4 | 14.5 | 0.00 | 0.03 | 0.03 | 71 | 1014.2 |
| 20260906021559 | 29 | 25 | 4.8 | 14.5 | 0.00 | 0.03 | 0.03 | 70 | 1014.1 |
| 20260906021039 | 29 | 44 | 6.4 | 16.1 | 0.00 | 0.03 | 0.03 | 70 | 1014.1 |
| 20260906020540 | 29 | 360 | 6.4 | 16.1 | 0.00 | 0.03 | 0.03 | 69 | 1014.0 |
| 20260906020105 | 29 | 17 | 9.7 | 16.1 | 0.00 | 0.03 | 0.03 | 69 | 1013.9 |
| 20260906015539 | 29 | 346 | 9.7 | 16.1 | 0.00 | 0.03 | 0.03 | 68 | 1013.9 |
| 20260906015039 | 29 | 5 | 8.0 | 16.1 | 0.00 | 0.03 | 0.03 | 68 | 1013.8 |
| 20260906014602 | 29 | 351 | 6.4 | 12.9 | 0.00 | 0.03 | 0.03 | 68 | 1013.7 |
| 20260906014040 | 28 | 10 | 6.4 | 12.9 | 0.00 | 0.03 | 0.03 | 68 | 1013.7 |
| 20260906013542 | 28 | 355 | 8.0 | 12.9 | 0.00 | 0.03 | 0.03 | 68 | 1013.6 |
| 20260906013109 | 28 | 15 | 6.4 | 12.9 | 0.00 | 0.03 | 0.03 | 68 | 1013.6 |
| 20260906012542 | 28 | 360 | 6.4 | 12.9 | 0.00 | 0.03 | 0.03 | 68 | 1013.5 |
| 20260906012037 | 28 | 5 | 4.8 | 8.0 | 0.00 | 0.03 | 0.03 | 68 | 1013.4 |
| 20260906011607 | 28 | 5 | 4.8 | 8.0 | 0.00 | 0.03 | 0.03 | 67 | 1013.4 |
| 20260906011038 | 29 | 5 | 3.2 | 6.4 | 0.00 | 0.03 | 0.03 | 67 | 1013.3 |
| 20260906010539 | 29 | 5 | 3.2 | 6.4 | 0.00 | 0.03 | 0.03 | 65 | 1013.4 |
| 20260906010107 | 29 | 5 | 1.6 | 4.8 | 0.00 | 0.03 | 0.03 | 65 | 1013.3 |
| 20260906005539 | 30 | 5 | 0.0 | 4.8 | 0.00 | 0.03 | 0.03 | 64 | 1013.3 |
| 20260906005041 | 30 | 0 | 0.0 | 0.0 | 0.00 | 0.03 | 0.03 | 64 | 1013.2 |
| 20260906004603 | 30 | 0 | 0.0 | 0.0 | 0.00 | 0.03 | 0.03 | 64 | 1013.2 |
| 20260906004041 | 30 | 0 | 0.0 | 0.0 | 0.00 | 0.03 | 0.03 | 66 | 1013.1 |
| 20260906003539 | 31 | 0 | 0.0 | 0.0 | 0.00 | 0.03 | 0.03 | 67 | 1013.1 |
| 20260906003102 | 31 | 0 | 0.0 | 0.0 | 0.00 | 0.03 | 0.03 | 66 | 1013.1 |
| 20260906002543 | 31 | 0 | 0.0 | 0.0 | 0.00 | 0.03 | 0.03 | 66 | 1013.0 |
| 20260906002039 | 31 | 0 | 0.0 | 0.0 | 0.00 | 0.03 | 0.03 | 65 | 1013.0 |
| 20260906001555 | 31 | 0 | 0.0 | 0.0 | 0.00 | 0.03 | 0.03 | 64 | 1013.2 |
| 20260906001039 | 32 | 0 | 0.0 | 0.0 | 0.00 | 0.03 | 0.03 | 63 | 1013.2 |
| 20260906000539 | 32 | 0 | 0.0 | 0.0 | 0.00 | 0.03 | 0.03 | 64 | 1013.2 |
| 20260906000106 | 32 | 0 | 0.0 | 0.0 | 0.00 | 0.03 | 0.03 | 63 | 1013.2 |
| 20260905235539 | 32 | 0 | 0.0 | 0.0 | 0.00 | 0.03 | 0.03 | 62 | 1013.2 |
| 20260905235039 | 32 | 0 | 0.0 | 0.0 | 0.00 | 0.03 | 0.03 | 61 | 1013.2 |
| 20260905234559 | 32 | 0 | 0.0 | 0.0 | 0.00 | 0.03 | 0.03 | 61 | 1013.3 |
| 20260905234037 | 32 | 0 | 0.0 | 0.0 | 0.00 | 0.03 | 0.03 | 61 | 1013.3 |
| 20260905233538 | 32 | 0 | 0.0 | 0.0 | 0.00 | 0.03 | 0.03 | 61 | 1013.3 |
| 20260905233059 | 32 | 0 | 0.0 | 0.0 | 0.00 | 0.03 | 0.03 | 60 | 1013.3 |
| 20260905232538 | 32 | 0 | 0.0 | 3.2 | 0.00 | 0.03 | 0.03 | 61 | 1013.4 |
| 20260905232038 | 32 | 0 | 0.0 | 3.2 | 0.00 | 0.03 | 0.03 | 60 | 1013.3 |
| 20260905231553 | 32 | 5 | 0.0 | 4.8 | 0.00 | 0.03 | 0.03 | 59 | 1013.4 |
| 20260905231039 | 32 | 0 | 0.0 | 12.9 | 0.00 | 0.03 | 0.03 | 58 | 1013.4 |
| 20260905230540 | 32 | 5 | 1.6 | 12.9 | 0.00 | 0.03 | 0.03 | 58 | 1013.4 |
| 20260905230058 | 33 | 9 | 3.2 | 8.0 | 0.00 | 0.03 | 0.03 | 56 | 1013.5 |
| 20260905225543 | 33 | 0 | 3.2 | 11.3 | 0.00 | 0.03 | 0.03 | 57 | 1013.4 |
| 20260905225038 | 33 | 242 | 4.8 | 12.9 | 0.00 | 0.03 | 0.03 | 56 | 1013.2 |
| 20260905224556 | 33 | 251 | 4.8 | 12.9 | 0.00 | 0.03 | 0.03 | 56 | 1013.2 |
| 20260905224038 | 33 | 246 | 4.8 | 12.9 | 0.00 | 0.03 | 0.03 | 56 | 1013.1 |
| 20260905223541 | 33 | 235 | 3.2 | 11.3 | 0.00 | 0.03 | 0.03 | 57 | 1013.2 |
| 20260905223101 | 33 | 246 | 3.2 | 14.5 | 0.00 | 0.03 | 0.03 | 57 | 1013.1 |
| 20260905222541 | 33 | 0 | 1.6 | 16.1 | 0.00 | 0.03 | 0.03 | 59 | 1013.0 |
| 20260905222038 | 33 | 252 | 9.7 | 16.1 | 0.00 | 0.03 | 0.03 | 56 | 1013.1 |
| 20260905221603 | 33 | 267 | 6.4 | 14.5 | 0.00 | 0.03 | 0.03 | 57 | 1013.1 |
| 20260905221039 | 33 | 254 | 1.6 | 8.0 | 0.00 | 0.03 | 0.03 | 60 | 1013.1 |
| 20260905220537 | 33 | 254 | 3.2 | 8.0 | 0.00 | 0.03 | 0.03 | 59 | 1013.1 |
| 20260905215537 | 34 | 279 | 0.0 | 4.8 | 0.00 | 0.03 | 0.03 | 56 | 1013.2 |
| 20260905215039 | 34 | 0 | 0.0 | 0.0 | 0.00 | 0.03 | 0.03 | 56 | 1013.3 |
| 20260905214553 | 34 | 0 | 0.0 | 0.0 | 0.00 | 0.03 | 0.03 | 54 | 1013.3 |
| 20260905214036 | 35 | 0 | 0.0 | 4.8 | 0.00 | 0.03 | 0.03 | 53 | 1013.3 |
| 20260905213539 | 35 | 0 | 0.0 | 6.4 | 0.00 | 0.03 | 0.03 | 51 | 1013.3 |
| 20260905213107 | 35 | 281 | 3.2 | 6.4 | 0.00 | 0.03 | 0.03 | 50 | 1013.3 |
| 20260905212537 | 35 | 287 | 3.2 | 6.4 | 0.00 | 0.03 | 0.03 | 49 | 1013.3 |
| 20260905212036 | 35 | 244 | 1.6 | 11.3 | 0.00 | 0.03 | 0.03 | 50 | 1013.2 |
| 20260905211559 | 35 | 0 | 3.2 | 14.5 | 0.00 | 0.03 | 0.03 | 49 | 1013.2 |
| 20260905211037 | 35 | 233 | 4.8 | 14.5 | 0.00 | 0.03 | 0.03 | 50 | 1013.2 |
| 20260905210539 | 35 | 271 | 4.8 | 11.3 | 0.00 | 0.03 | 0.03 | 52 | 1013.2 |
| 20260905210118 | 35 | 286 | 1.6 | 6.4 | 0.00 | 0.03 | 0.03 | 51 | 1013.2 |
| 20260905205536 | 35 | 0 | 1.6 | 6.4 | 0.00 | 0.03 | 0.03 | 53 | 1013.2 |
| 20260905205038 | 35 | 306 | 0.0 | 4.8 | 0.00 | 0.03 | 0.03 | 52 | 1013.4 |
| 20260905204602 | 35 | 321 | 0.0 | 6.4 | 0.00 | 0.03 | 0.03 | 51 | 1013.4 |
| 20260905204037 | 35 | 321 | 3.2 | 6.4 | 0.00 | 0.03 | 0.03 | 49 | 1013.6 |
| 20260905203537 | 35 | 350 | 3.2 | 8.0 | 0.00 | 0.03 | 0.03 | 47 | 1013.5 |
| 20260905203102 | 35 | 36 | 3.2 | 8.0 | 0.00 | 0.03 | 0.03 | 49 | 1013.6 |
| 20260905202536 | 35 | 24 | 4.8 | 8.0 | 0.00 | 0.03 | 0.03 | 50 | 1013.6 |
| 20260905202037 | 35 | 43 | 4.8 | 8.0 | 0.00 | 0.03 | 0.03 | 49 | 1013.5 |
| 20260905201556 | 34 | 23 | 4.8 | 8.0 | 0.00 | 0.03 | 0.03 | 52 | 1013.7 |
| 20260905201037 | 33 | 80 | 0.0 | 8.0 | 0.00 | 0.03 | 0.03 | 52 | 1013.9 |
| 20260905200536 | 33 | 355 | 3.2 | 8.0 | 0.00 | 0.03 | 0.03 | 52 | 1013.9 |
| 20260905200056 | 33 | 5 | 3.2 | 8.0 | 0.00 | 0.03 | 0.03 | 59 | 1013.8 |
| 20260905195537 | 32 | 350 | 1.6 | 8.0 | 0.00 | 0.03 | 0.03 | 65 | 1013.8 |
| 20260905195036 | 31 | 19 | 1.6 | 4.8 | 0.03 | 0.03 | 0.03 | 71 | 1013.9 |
| 20260905194608 | 30 | 19 | 0.0 | 4.8 | 0.03 | 0.03 | 0.03 | 74 | 1013.9 |
| 20260905194037 | 30 | 19 | 0.0 | 4.8 | 0.03 | 0.03 | 0.03 | 75 | 1014.0 |
| 20260905193538 | 29 | 0 | 1.6 | 4.8 | 0.03 | 0.03 | 0.03 | 75 | 1014.1 |
| 20260905193057 | 28 | 0 | 0.0 | 3.2 | 0.03 | 0.03 | 0.03 | 75 | 1014.3 |
| 20260905192537 | 28 | 0 | 0.0 | 8.0 | 0.03 | 0.03 | 0.03 | 75 | 1014.3 |
| 20260905192037 | 28 | 19 | 0.0 | 14.5 | 0.03 | 0.03 | 0.03 | 73 | 1014.4 |
| 20260905191608 | 28 | 333 | 3.2 | 14.5 | 0.03 | 0.03 | 0.03 | 69 | 1014.5 |
| 20260905191037 | 28 | 288 | 4.8 | 14.5 | 0.03 | 0.03 | 0.03 | 68 | 1014.5 |
| 20260905190541 | 28 | 270 | 3.2 | 20.9 | 0.03 | 0.03 | 0.03 | 65 | 1014.4 |
| 20260905190119 | 28 | 333 | 6.4 | 32.2 | 0.03 | 0.03 | 0.03 | 62 | 1014.4 |
| 20260905185536 | 29 | 328 | 9.7 | 33.8 | 0.00 | 0.00 | 0.00 | 58 | 1014.7 |
| 20260905185036 | 30 | 352 | 17.7 | 38.6 | 0.00 | 0.00 | 0.00 | 55 | 1014.5 |
| 20260905184624 | 31 | 5 | 17.7 | 38.6 | 0.00 | 0.00 | 0.00 | 51 | 1015.0 |
| 20260905184037 | 32 | 42 | 22.5 | 38.6 | 0.00 | 0.00 | 0.00 | 48 | 1015.1 |
| 20260905183537 | 34 | 360 | 20.9 | 38.6 | 0.00 | 0.00 | 0.00 | 46 | 1015.0 |
| 20260905183101 | 36 | 5 | 14.5 | 29.0 | 0.00 | 0.00 | 0.00 | 47 | 1014.6 |
| 20260905182537 | 36 | 355 | 4.8 | 16.1 | 0.00 | 0.00 | 0.00 | 42 | 1014.4 |
| 20260905182037 | 36 | 240 | 4.8 | 16.1 | 0.00 | 0.00 | 0.00 | 42 | 1014.5 |
| 20260905181601 | 37 | 306 | 4.8 | 19.3 | 0.00 | 0.00 | 0.00 | 40 | 1014.6 |
| 20260905181036 | 37 | 327 | 6.4 | 19.3 | 0.00 | 0.00 | 0.00 | 38 | 1014.5 |
| 20260905180537 | 37 | 247 | 9.7 | 19.3 | 0.00 | 0.00 | 0.00 | 39 | 1014.5 |
| 20260905180056 | 37 | 299 | 9.7 | 19.3 | 0.00 | 0.00 | 0.00 | 39 | 1014.6 |
| 20260905175537 | 37 | 255 | 4.8 | 22.5 | 0.00 | 0.00 | 0.00 | 42 | 1014.7 |
| 20260905175037 | 37 | 326 | 11.3 | 22.5 | 0.00 | 0.00 | 0.00 | 39 | 1014.7 |
| 20260905174600 | 37 | 232 | 8.0 | 20.9 | 0.00 | 0.00 | 0.00 | 41 | 1014.6 |
| 20260905174037 | 37 | 279 | 4.8 | 16.1 | 0.00 | 0.00 | 0.00 | 42 | 1014.7 |
| 20260905173536 | 37 | 257 | 6.4 | 16.1 | 0.00 | 0.00 | 0.00 | 43 | 1014.9 |
| 20260905173104 | 37 | 360 | 8.0 | 17.7 | 0.00 | 0.00 | 0.00 | 41 | 1014.8 |
| 20260905172537 | 37 | 264 | 6.4 | 17.7 | 0.00 | 0.00 | 0.00 | 44 | 1014.9 |
| 20260905172041 | 36 | 255 | 4.8 | 14.5 | 0.00 | 0.00 | 0.00 | 43 | 1014.8 |
| 20260905171610 | 36 | 336 | 4.8 | 12.9 | 0.00 | 0.00 | 0.00 | 42 | 1014.9 |
| 20260905171037 | 36 | 0 | 3.2 | 11.3 | 0.00 | 0.00 | 0.00 | 44 | 1014.9 |
| 20260905170536 | 36 | 297 | 3.2 | 11.3 | 0.00 | 0.00 | 0.00 | 43 | 1015.0 |
| 20260905170057 | 36 | 286 | 3.2 | 12.9 | 0.00 | 0.00 | 0.00 | 48 | 1015.0 |
| 20260905165536 | 36 | 113 | 4.8 | 12.9 | 0.00 | 0.00 | 0.00 | 48 | 1015.2 |
| 20260905165036 | 36 | 92 | 1.6 | 11.3 | 0.00 | 0.00 | 0.00 | 47 | 1015.2 |
| 20260905164603 | 36 | 223 | 4.8 | 11.3 | 0.00 | 0.00 | 0.00 | 47 | 1015.3 |
| 20260905164040 | 36 | 265 | 3.2 | 9.7 | 0.00 | 0.00 | 0.00 | 49 | 1015.4 |
| 20260905163544 | 36 | 0 | 1.6 | 9.7 | 0.00 | 0.00 | 0.00 | 51 | 1015.5 |
| 20260905163112 | 35 | 355 | 3.2 | 9.7 | 0.00 | 0.00 | 0.00 | 50 | 1015.5 |
| 20260905162541 | 35 | 0 | 1.6 | 11.3 | 0.00 | 0.00 | 0.00 | 50 | 1015.6 |
| 20260905162039 | 35 | 298 | 4.8 | 12.9 | 0.00 | 0.00 | 0.00 | 52 | 1015.6 |
| 20260905161558 | 35 | 22 | 4.8 | 12.9 | 0.00 | 0.00 | 0.00 | 51 | 1015.6 |
| 20260905161042 | 35 | 250 | 4.8 | 9.7 | 0.00 | 0.00 | 0.00 | 51 | 1015.6 |
| 20260905160542 | 35 | 303 | 1.6 | 9.7 | 0.00 | 0.00 | 0.00 | 52 | 1015.7 |
| 20260905160056 | 35 | 298 | 3.2 | 8.0 | 0.00 | 0.00 | 0.00 | 53 | 1015.7 |
| 20260905155540 | 35 | 279 | 3.2 | 6.4 | 0.00 | 0.00 | 0.00 | 53 | 1015.6 |
| 20260905155040 | 34 | 271 | 1.6 | 6.4 | 0.00 | 0.00 | 0.00 | 54 | 1015.7 |
| 20260905154617 | 34 | 322 | 0.0 | 6.4 | 0.00 | 0.00 | 0.00 | 55 | 1015.8 |
| 20260905154040 | 34 | 269 | 1.6 | 6.4 | 0.00 | 0.00 | 0.00 | 54 | 1015.8 |
| 20260905153543 | 33 | 40 | 1.6 | 6.4 | 0.00 | 0.00 | 0.00 | 58 | 1015.7 |
| 20260905153112 | 33 | 300 | 0.0 | 8.0 | 0.00 | 0.00 | 0.00 | 57 | 1015.6 |
| 20260905152540 | 33 | 229 | 3.2 | 8.0 | 0.00 | 0.00 | 0.00 | 58 | 1015.7 |
| 20260905152045 | 33 | 19 | 3.2 | 8.0 | 0.00 | 0.00 | 0.00 | 56 | 1015.7 |
| 20260905151605 | 32 | 245 | 1.6 | 8.0 | 0.00 | 0.00 | 0.00 | 58 | 1015.7 |
| 20260905151040 | 32 | 355 | 1.6 | 11.3 | 0.00 | 0.00 | 0.00 | 59 | 1015.6 |
| 20260905150540 | 32 | 240 | 1.6 | 11.3 | 0.00 | 0.00 | 0.00 | 60 | 1015.6 |